[[{"header":{"parameterUnit":"m.s-1","parameterCategory":1,"la1":30.2991,"la2":30.254,"lo1":-89.0895,"lo2":-89.0444,"dy":0.0017,"dx":0.0017,"nx":28,"ny":28,"refTime":"2025-06-21T21:00:00:Z","depth":0,"parameterNumber":2,"parameterNumberName":"U-component_of_WINDS"},"data":[0,0,0,0,0,0,0,0,0,0,0,0,0,0,0,0,0,0,0,0,0,0,0,0,0,0,0,0,0,0,0,0,0,0,0,0,0,0,0,0,0,0,0,0,0,0,0,0,0,0,0,0,0,0,0,0,0,0,-0.6464,-0.6463,0,-0.6397,-0.6396,-0.6395,-0.6343,-0.6342,-0.6342,-0.6342,-0.6273,-0.6272,-0.6271,0,0,0,0,0,0,0,0,0,0,0,0,0,-0.6548,-0.6547,-0.6464,-0.6463,-0.6462,-0.6397,-0.6396,-0.6395,-0.6343,-0.6342,-0.6342,-0.6341,-0.6274,-0.6272,-0.627,0,0,0,0,0,0,0,0,0,0,0,0,0,-0.65,-0.6547,-0.6464,-0.6428,-0.6425,-0.6397,-0.6396,-0.6395,-0.6343,-0.6342,-0.6342,-0.6341,-0.6274,-0.6272,-0.627,-0.6273,0,0,-0.6264,-0.6263,0,0,0,0,0,0,0,0,-0.6503,-0.6497,-0.6435,-0.6431,-0.6426,-0.6378,-0.6401,-0.6354,-0.6343,-0.6374,-0.6341,-0.6341,-0.6309,-0.6304,-0.6293,-0.627,-0.6267,-0.6264,-0.6263,-0.6262,-0.6261,0,0,0,0,0,0,0,-0.6506,-0.6499,-0.6437,-0.6434,-0.6429,-0.6416,-0.6409,-0.6392,-0.6346,-0.6371,-0.6367,-0.636,-0.6306,-0.6295,-0.6291,-0.6266,-0.6264,-0.6262,-0.6261,-0.626,-0.6243,-0.6244,0,0,0,0,0,0,-0.6515,-0.6502,-0.644,-0.6435,-0.6463,-0.6415,-0.6407,-0.6394,-0.6346,-0.6338,-0.6361,-0.6358,-0.6299,-0.6293,-0.6288,-0.6289,-0.6262,-0.626,-0.6259,-0.6243,-0.6243,-0.6244,0,0,0,0,0,0,-0.6517,-0.651,-0.6442,-0.6468,-0.6458,-0.6415,-0.6401,-0.6393,-0.6382,-0.6339,-0.633,-0.6358,-0.6298,-0.6291,-0.6277,-0.6286,-0.6259,-0.6257,-0.6242,-0.6243,-0.6244,-0.629,0,0,0,0,0,0,-0.6519,-0.6511,-0.6511,-0.6468,-0.6457,-0.6432,-0.6401,-0.6392,-0.6378,-0.6374,-0.6333,-0.6326,-0.6297,-0.6281,-0.6275,-0.6283,-0.6256,-0.6241,-0.6242,-0.6243,-0.6288,-0.6293,-0.6297,0,0,0,0,0,-0.6523,-0.6526,-0.6511,-0.6504,-0.6456,-0.6433,-0.6427,-0.6393,-0.6379,-0.6379,-0.6352,-0.6327,-0.6286,-0.628,-0.6273,-0.628,-0.624,-0.6242,-0.6243,-0.6286,-0.6292,-0.6297,0,0,0,0,0,0,-0.6571,-0.652,-0.6503,-0.6493,-0.6468,-0.6424,-0.6423,-0.6401,-0.6379,-0.6376,-0.6335,-0.6326,-0.6318,-0.6297,-0.6291,-0.6281,-0.626,-0.626,-0.6294,-0.63,-0.6305,-0.6309,-0.6254,0,0,0,0,0,-0.6581,-0.6565,-0.6522,-0.6517,-0.6506,-0.6467,-0.6455,-0.6432,-0.6404,-0.6393,-0.6365,-0.6339,-0.6321,-0.6309,-0.629,-0.6285,-0.6276,-0.6287,-0.6291,-0.6296,-0.6296,-0.6294,-0.6298,-0.625,-0.625,-0.625,0,0,-0.66,-0.657,-0.6563,-0.6526,-0.6504,-0.649,-0.6458,-0.6444,-0.6434,-0.6391,-0.6377,-0.6355,-0.6324,-0.6316,-0.631,-0.6298,-0.6308,-0.6298,-0.6301,-0.63,-0.6296,-0.63,-0.6305,-0.6251,-0.6251,-0.6251,0,0,-0.6628,-0.6604,-0.6598,-0.6577,-0.6544,-0.6518,-0.6517,-0.6477,-0.6461,-0.6446,-0.6415,-0.6402,-0.637,-0.6349,-0.6335,-0.6357,-0.6334,-0.6352,-0.6377,-0.6375,-0.6378,-0.6381,-0.639,-0.6394,-0.6353,-0.6353,-0.6353,0,-0.6656,-0.6633,-0.6598,-0.6586,-0.6571,-0.6533,-0.6527,-0.6508,-0.6471,-0.6462,-0.6449,-0.641,-0.6386,-0.6372,-0.6378,-0.6367,-0.6365,-0.6356,-0.6381,-0.6383,-0.6386,-0.6394,-0.6397,-0.6356,-0.6356,-0.6355,-0.6355,0,-0.667,-0.6655,-0.6654,-0.6619,-0.6604,-0.6596,-0.656,-0.6549,-0.6527,-0.6503,-0.6489,-0.646,-0.6434,-0.6429,-0.6407,-0.6413,-0.6407,-0.6388,-0.6366,-0.6394,-0.64,-0.6403,-0.6359,-0.6358,-0.6358,-0.6357,0,0,-0.6726,-0.6672,-0.6673,-0.6657,-0.6618,-0.6606,-0.6596,-0.6571,-0.6563,-0.6539,-0.653,-0.6506,-0.6488,-0.6472,-0.6448,-0.6446,-0.6467,-0.6427,-0.6426,-0.6436,-0.6472,-0.6486,-0.649,-0.6451,-0.6452,-0.6452,-0.6475,0,-0.6748,-0.6728,-0.6696,-0.6687,-0.6673,-0.6637,-0.6628,-0.6604,-0.6582,-0.6568,-0.6543,-0.6526,-0.6504,-0.6495,-0.6491,-0.6465,-0.6473,-0.6463,-0.6443,-0.6443,-0.6452,-0.6494,-0.6508,-0.6531,-0.6477,-0.6477,-0.6478,0,-0.6771,-0.675,-0.6739,-0.6702,-0.6695,-0.6688,-0.6663,-0.665,-0.6622,-0.6606,-0.6589,-0.6563,-0.6552,-0.6532,-0.6516,-0.651,-0.65,-0.6486,-0.6486,-0.6483,-0.6462,-0.6492,-0.6537,-0.6541,-0.6481,-0.6481,-0.6481,0,-0.6814,-0.6782,-0.6771,-0.6759,-0.6716,-0.6712,-0.6694,-0.6666,-0.6653,-0.6632,-0.6623,-0.6601,-0.6589,-0.6573,-0.6542,-0.653,-0.653,-0.6507,-0.6517,-0.6518,-0.6518,-0.6518,-0.6563,-0.6512,-0.6512,-0.6512,-0.6512,0,-0.6842,-0.6837,-0.679,-0.6784,-0.6777,-0.6741,-0.6736,-0.6715,-0.669,-0.668,-0.6648,-0.6639,-0.6598,-0.6585,-0.6561,-0.6552,-0.6547,-0.6534,-0.6528,-0.6537,-0.6539,-0.653,-0.6527,-0.6513,-0.6512,-0.6512,-0.6512,0,-0.6888,-0.6856,-0.6843,-0.6804,-0.6794,-0.6791,-0.6758,-0.6751,-0.6727,-0.6714,-0.6709,-0.6672,-0.6655,-0.6623,-0.6596,-0.658,-0.6576,-0.6565,-0.6586,-0.6582,-0.6593,-0.6593,-0.6634,-0.6638,-0.6584,-0.6585,-0.6585,0,-0.6909,-0.6904,-0.6864,-0.6855,-0.6838,-0.6823,-0.6811,-0.6776,-0.6764,-0.6733,-0.673,-0.671,-0.6692,-0.6666,-0.6637,-0.6617,-0.6605,-0.6621,-0.6602,-0.6612,-0.6606,-0.6607,-0.6607,-0.6626,-0.6626,-0.6627,-0.6627,0,-0.6948,-0.6933,-0.6915,-0.6893,-0.6879,-0.6859,-0.6838,-0.6833,-0.6793,-0.6782,-0.6764,-0.675,-0.6723,-0.6704,-0.668,-0.6662,-0.6639,-0.6634,-0.6635,-0.6644,-0.6657,-0.6651,-0.6598,-0.6633,-0.6632,-0.6632,-0.6632,-0.6631,-0.6982,-0.6977,-0.6948,-0.693,-0.6911,-0.6892,-0.6884,-0.686,-0.6844,-0.6819,-0.68,-0.6784,-0.6758,-0.6723,-0.6706,-0.6694,-0.6682,-0.6684,-0.6684,-0.6685,-0.669,-0.6659,-0.6689,-0.6689,-0.6689,-0.6688,-0.6688,0,-0.702,-0.7001,-0.6984,-0.6956,-0.6943,-0.6922,-0.6898,-0.6888,-0.6874,-0.6851,-0.6835,-0.6815,-0.6796,-0.6767,-0.6746,-0.6742,-0.673,-0.6737,-0.6737,-0.6734,-0.67,-0.6702,-0.6747,-0.6747,-0.6747,-0.6747,-0.6747,-0.6747,-0.7039,-0.7029,-0.701,-0.6991,-0.6971,-0.6955,-0.6943,-0.6926,-0.6908,-0.6887,-0.6872,-0.6852,-0.6827,-0.6805,-0.6787,-0.6779,-0.6773,-0.6784,-0.6772,-0.6742,-0.6736,-0.6731,-0.6732,-0.6783,-0.6783,-0.6807,-0.6807,-0.6807]},{"header":{"parameterUnit":"m.s-1","parameterCategory":1,"la1":30.2991,"la2":30.254,"lo1":-89.0895,"lo2":-89.0444,"dy":0.0017,"dx":0.0017,"nx":28,"ny":28,"refTime":"2025-06-21T21:00:00:Z","depth":0,"parameterNumber":3,"parameterNumberName":"V-component_of_WINDS"},"data":[0,0,0,0,0,0,0,0,0,0,0,0,0,0,0,0,0,0,0,0,0,0,0,0,0,0,0,0,0,0,0,0,0,0,0,0,0,0,0,0,0,0,0,0,0,0,0,0,0,0,0,0,0,0,0,0,0,0,2.7913,2.7913,0,2.7904,2.7904,2.7904,2.7898,2.7898,2.7898,2.7898,2.7887,2.7887,2.7886,0,0,0,0,0,0,0,0,0,0,0,0,0,2.7924,2.7924,2.7913,2.7913,2.7913,2.7904,2.7904,2.7903,2.7898,2.7898,2.7898,2.7898,2.7887,2.7887,2.7886,0,0,0,0,0,0,0,0,0,0,0,0,0,2.7917,2.7924,2.7913,2.7909,2.7908,2.7904,2.7904,2.7903,2.7898,2.7898,2.7898,2.7898,2.7887,2.7887,2.7886,2.7885,0,0,2.7885,2.7885,0,0,0,0,0,0,0,0,2.7918,2.7917,2.7909,2.7909,2.7908,2.7902,2.7904,2.7897,2.7898,2.7902,2.7898,2.7898,2.7892,2.7891,2.7889,2.7884,2.7884,2.7885,2.7885,2.7885,2.7884,0,0,0,0,0,0,0,2.7918,2.7917,2.7909,2.7909,2.7909,2.7907,2.7906,2.7902,2.7897,2.7901,2.7901,2.79,2.7891,2.789,2.7889,2.7884,2.7885,2.7885,2.7884,2.7884,2.7877,2.7877,0,0,0,0,0,0,2.792,2.7918,2.7909,2.7909,2.7913,2.7907,2.7906,2.7904,2.7897,2.7896,2.79,2.79,2.789,2.7889,2.7889,2.7887,2.7885,2.7884,2.7884,2.7877,2.7877,2.7877,0,0,0,0,0,0,2.792,2.7919,2.791,2.7913,2.7912,2.7907,2.7905,2.7904,2.7902,2.7896,2.7895,2.7899,2.789,2.7889,2.7886,2.7886,2.7884,2.7884,2.7877,2.7877,2.7877,2.7883,0,0,0,0,0,0,2.792,2.7919,2.7919,2.7913,2.7912,2.7908,2.7905,2.7904,2.7902,2.7901,2.7895,2.7894,2.789,2.7887,2.7886,2.7886,2.7883,2.7877,2.7877,2.7877,2.7882,2.7883,2.7883,0,0,0,0,0,2.7921,2.792,2.7919,2.7918,2.7911,2.7908,2.7907,2.7903,2.7902,2.7901,2.7897,2.7894,2.7886,2.7886,2.7885,2.7885,2.7877,2.7877,2.7877,2.7882,2.7883,2.7883,0,0,0,0,0,0,2.7925,2.7919,2.7918,2.7915,2.7912,2.7907,2.7906,2.7903,2.79,2.79,2.7894,2.7893,2.789,2.7887,2.7887,2.7883,2.7881,2.7881,2.7886,2.7886,2.7887,2.7887,2.7883,0,0,0,0,0,2.7926,2.7923,2.7919,2.7917,2.7916,2.7911,2.7909,2.7907,2.7903,2.7901,2.7897,2.7893,2.789,2.7888,2.7884,2.7882,2.7881,2.7881,2.7882,2.7882,2.7882,2.7881,2.7882,2.7878,2.7878,2.7878,0,0,2.7927,2.7924,2.7922,2.7918,2.7915,2.7913,2.791,2.7907,2.7906,2.7901,2.7898,2.7895,2.789,2.7887,2.7886,2.7885,2.7883,2.7882,2.7883,2.7882,2.7881,2.7882,2.7882,2.7878,2.7878,2.7878,0,0,2.7928,2.7925,2.7924,2.7922,2.7918,2.7915,2.7914,2.791,2.7908,2.7905,2.7901,2.7899,2.7893,2.789,2.7888,2.7889,2.7886,2.7888,2.789,2.7889,2.7889,2.789,2.789,2.789,2.7888,2.7888,2.7888,0,2.793,2.7927,2.7924,2.7922,2.792,2.7916,2.7915,2.7912,2.7907,2.7906,2.7905,2.7898,2.7894,2.7891,2.7892,2.789,2.7889,2.7888,2.789,2.789,2.789,2.7891,2.7891,2.7888,2.7888,2.7888,2.7888,0,2.793,2.7928,2.7927,2.7923,2.7921,2.7919,2.7916,2.7914,2.7912,2.7909,2.7906,2.7902,2.7898,2.7897,2.7894,2.7893,2.7893,2.7891,2.7888,2.7891,2.7891,2.7891,2.7888,2.7888,2.7888,2.7888,0,0,2.7933,2.7928,2.7928,2.7926,2.7922,2.792,2.7918,2.7915,2.7914,2.791,2.7909,2.7904,2.7903,2.79,2.7897,2.7896,2.7898,2.7894,2.7894,2.7895,2.7897,2.7899,2.7899,2.7896,2.7896,2.7896,2.7898,0,2.7934,2.7931,2.7928,2.7926,2.7924,2.7921,2.7919,2.7917,2.7914,2.7912,2.7909,2.7906,2.7904,2.7902,2.7901,2.7898,2.7898,2.7898,2.7894,2.7894,2.7896,2.7899,2.7901,2.7903,2.7898,2.7898,2.7898,0,2.7934,2.7932,2.793,2.7927,2.7926,2.7924,2.7922,2.792,2.7916,2.7914,2.7912,2.7909,2.7907,2.7905,2.7902,2.7902,2.7901,2.7899,2.7899,2.7898,2.7896,2.7899,2.7903,2.7904,2.7898,2.7898,2.7898,0,2.7937,2.7934,2.7932,2.7931,2.7927,2.7926,2.7924,2.7921,2.7919,2.7916,2.7915,2.7912,2.791,2.7908,2.7904,2.7903,2.7902,2.79,2.79,2.79,2.79,2.79,2.7904,2.7899,2.7899,2.7899,2.7899,0,2.7938,2.7937,2.7933,2.7933,2.7931,2.7928,2.7927,2.7925,2.7922,2.792,2.7917,2.7916,2.7911,2.7909,2.7906,2.7904,2.7903,2.7902,2.7901,2.7902,2.7903,2.7901,2.7901,2.7899,2.7899,2.7899,2.7899,0,2.7941,2.7939,2.7937,2.7933,2.7932,2.7932,2.7929,2.7928,2.7925,2.7923,2.7923,2.7919,2.7916,2.7913,2.7909,2.7907,2.7906,2.7904,2.7907,2.7906,2.7907,2.7908,2.7911,2.7911,2.7906,2.7906,2.7906,0,2.7942,2.7942,2.7938,2.7937,2.7936,2.7934,2.7933,2.793,2.7928,2.7925,2.7924,2.7922,2.792,2.7916,2.7912,2.791,2.7908,2.791,2.7908,2.7909,2.7909,2.7909,2.7909,2.791,2.791,2.791,2.791,0,2.7944,2.7943,2.7942,2.794,2.7938,2.7937,2.7935,2.7934,2.793,2.7929,2.7927,2.7925,2.7922,2.792,2.7916,2.7914,2.7912,2.7911,2.7911,2.7912,2.7914,2.7913,2.7908,2.7911,2.7911,2.7911,2.7911,2.7911,2.7946,2.7946,2.7944,2.7942,2.794,2.7939,2.7938,2.7936,2.7934,2.7932,2.793,2.7928,2.7925,2.7921,2.7919,2.7917,2.7916,2.7916,2.7916,2.7916,2.7917,2.7914,2.7917,2.7916,2.7916,2.7916,2.7916,0,2.7948,2.7947,2.7946,2.7944,2.7942,2.7941,2.7939,2.7938,2.7936,2.7934,2.7932,2.793,2.7928,2.7925,2.7923,2.7922,2.7921,2.7921,2.7921,2.7921,2.7918,2.7918,2.7922,2.7922,2.7922,2.7922,2.7922,2.7922,2.7949,2.7949,2.7947,2.7946,2.7944,2.7943,2.7942,2.794,2.7939,2.7937,2.7935,2.7933,2.7931,2.7928,2.7927,2.7926,2.7925,2.7926,2.7925,2.7922,2.7921,2.7921,2.7921,2.7926,2.7926,2.7928,2.7928,2.7928]}]]